Terminal Aerodrome Forecast
Issued by NWS

Home | Current Version | Previous Version | Text Only | Print | Product List | Glossary On
Versions: 1 2 3 4 5 6 7 8 9 10 11 12 13 14 15 16 17 18 19 20 21 22 23 24 25 26 27 28 29
000
FTUS43 KDLH 150100 AAA
TAFHIB
TAF AMD
KHIB 150108Z 1501/1524 29004KT P6SM BKN050
      TEMPO 1501/1503 -RA BKN030
     FM151500 32012KT P6SM SCT060=

USA.gov is the U.S. government's official web portal to all federal, state and local government web resources and services.